FW0271 Weather Reports


time (UTC)temp
F
wind
direction
speed
knots
gust
knots
rain 1hr
in
rain 24hr
in
rain mn
in
humidity
%
barometer
mb
20260906131519 71 139 0.0 2.6 0.00 0.02 0.00 98 1015.4
20260906131018 71 338 0.0 2.6 0.00 0.02 0.00 98 1015.3
20260906130515 71 165 0.0 1.7 0.00 0.02 0.00 98 1015.3
20260906130013 71 314 0.0 0.9 0.00 0.02 0.00 98 1015.2
20260906125513 71 134 0.0 1.7 0.00 0.02 0.00 98 1015.1
20260906125013 71 22 0.0 2.6 0.00 0.02 0.00 98 1014.9
20260906124514 71 284 0.0 2.6 0.00 0.02 0.00 98 1015.0
20260906124014 71 116 0.0 0.9 0.00 0.02 0.00 98 1014.9
20260906123513 71 115 0.0 1.7 0.00 0.02 0.00 98 1015.0
20260906123013 71 142 0.0 1.7 0.00 0.02 0.00 98 1015.0
20260906122513 71 354 0.0 1.7 0.00 0.02 0.00 98 1014.9
20260906122013 71 315 0.0 1.7 0.00 0.02 0.00 98 1015.0
20260906121513 71 95 0.0 0.9 0.00 0.02 0.00 98 1014.9
20260906121013 71 340 0.0 0.9 0.00 0.02 0.00 98 1014.8
20260906120516 71 204 0.0 0.9 0.00 0.02 0.00 98 1014.9
20260906120511 71 55 0.0 0.9 0.00 0.02 0.00 98 1014.9
20260906115511 71 205 0.0 0.9 0.00 0.02 0.00 98 1014.8
20260906115011 71 238 0.0 0.9 0.00 0.02 0.00 98 1014.8
20260906114509 71 149 0.0 0.9 0.00 0.02 0.00 98 1014.8
20260906114010 71 153 0.0 0.9 0.00 0.02 0.00 98 1014.7
20260906113509 71 152 0.0 0.9 0.00 0.02 0.00 98 1014.5
20260906113010 71 152 0.0 0.9 0.00 0.02 0.00 98 1014.5
20260906112510 71 155 0.0 0.9 0.00 0.02 0.00 98 1014.3
20260906112009 71 155 0.0 1.7 0.00 0.02 0.00 98 1014.2
20260906111509 70 155 0.0 1.7 0.00 0.02 0.00 98 1014.2
20260906111008 70 30 0.0 0.9 0.00 0.02 0.00 97 1014.1
20260906110508 70 358 0.0 0.0 0.00 0.02 0.00 97 1013.9
20260906110012 70 359 0.0 0.0 0.00 0.02 0.00 97 1013.7
20260906110008 70 358 0.0 0.0 0.00 0.02 0.00 97 1013.7
20260906105624 70 358 0.0 0.0 0.00 0.02 0.00 97 1013.7
20260906104508 71 358 0.0 0.0 0.00 0.02 0.00 97 1013.7
20260906104011 71 358 0.0 0.0 0.00 0.02 0.00 97 1013.6
20260906104007 71 358 0.0 0.0 0.00 0.02 0.00 97 1013.7
20260906103006 71 358 0.0 0.9 0.00 0.02 0.00 97 1013.7
20260906102503 71 358 0.0 0.9 0.00 0.02 0.00 97 1013.6
20260906102004 71 359 0.0 0.0 0.00 0.02 0.00 97 1013.6
20260906101511 71 358 0.0 0.9 0.00 0.02 0.00 96 1013.7
20260906101504 71 359 0.0 0.9 0.00 0.02 0.00 96 1013.6
20260906101004 71 359 0.0 0.9 0.00 0.02 0.00 96 1013.7
20260906100003 71 358 0.0 0.9 0.00 0.02 0.00 96 1013.6
20260906095503 72 358 0.0 0.9 0.00 0.02 0.00 96 1013.5
20260906095001 72 359 0.0 0.0 0.00 0.02 0.00 96 1013.5
20260906094502 72 358 0.0 0.0 0.00 0.02 0.00 96 1013.4
20260906094002 72 359 0.0 0.0 0.00 0.02 0.00 96 1013.3
20260906093503 72 358 0.0 0.0 0.00 0.02 0.00 96 1013.2
20260906093003 72 358 0.0 0.0 0.00 0.02 0.00 96 1013.1
20260906092501 72 359 0.0 0.0 0.00 0.02 0.00 96 1013.1
20260906092001 72 358 0.0 0.0 0.00 0.02 0.00 96 1013.2
20260906091502 73 358 0.0 0.0 0.00 0.02 0.00 95 1013.2
20260906090959 73 358 0.0 0.0 0.00 0.02 0.00 95 1013.2
20260906090459 73 359 0.0 0.9 0.00 0.02 0.00 95 1013.2
20260906090000 73 358 0.0 0.9 0.00 0.02 0.00 95 1013.3
20260906085501 73 358 0.0 0.9 0.00 0.02 0.00 95 1013.3
20260906085001 73 359 0.0 0.9 0.00 0.02 0.00 95 1013.2
20260906084459 73 354 0.0 0.9 0.00 0.02 0.00 95 1013.2
20260906084001 74 355 0.0 0.9 0.00 0.02 0.00 95 1013.2
20260906083500 74 31 0.0 0.9 0.00 0.02 0.00 95 1013.2
20260906083000 74 30 0.0 0.9 0.00 0.02 0.00 95 1013.1
20260906082457 74 30 0.0 0.9 0.00 0.02 0.00 95 1013.1
20260906081959 74 30 0.0 0.9 0.00 0.02 0.00 95 1013.1
20260906081500 74 31 0.0 0.9 0.00 0.02 0.00 95 1013.1
20260906081455 74 17 0.0 0.9 0.00 0.02 0.00 95 1013.1
20260906080454 74 17 0.0 0.9 0.00 0.02 0.00 95 1013.0
20260906075953 74 18 0.0 0.9 0.00 0.02 0.00 95 1013.0
20260906075449 74 18 0.0 0.9 0.00 0.02 0.00 95 1013.0
20260906074950 74 18 0.0 0.9 0.00 0.02 0.00 94 1013.1
20260906074451 74 13 0.0 0.0 0.00 0.02 0.00 94 1013.0
20260906073949 75 13 0.0 0.0 0.00 0.02 0.00 94 1013.0
20260906073447 75 13 0.0 1.7 0.00 0.02 0.00 94 1013.0
20260906072947 75 13 0.0 1.7 0.00 0.02 0.00 95 1013.0
20260906072445 75 57 0.0 1.7 0.00 0.02 0.00 95 1013.0
20260906071947 75 56 0.0 1.7 0.00 0.02 0.00 95 1013.1
20260906071447 75 26 0.0 0.9 0.00 0.02 0.00 94 1013.0
20260906071443 75 26 0.0 0.9 0.00 0.02 0.00 94 1013.1
20260906070441 75 26 0.0 0.9 0.00 0.02 0.00 94 1013.0
20260906065939 76 26 0.0 0.9 0.00 0.02 0.00 94 1013.1
20260906065439 76 26 0.0 0.9 0.00 0.02 0.00 94 1013.1
20260906064937 76 26 0.0 0.9 0.00 0.02 0.00 94 1013.1
20260906064434 76 26 0.0 0.0 0.00 0.02 0.00 94 1013.1
20260906063932 76 26 0.0 0.9 0.00 0.02 0.00 94 1013.1
20260906063928 77 27 0.0 0.9 0.00 0.02 0.00 93 1013.0
20260906063531 77 26 0.0 0.9 0.00 0.02 0.00 94 1013.1
20260906062427 77 27 0.0 1.7 0.00 0.02 0.00 93 1013.0
20260906061931 78 354 0.0 1.7 0.00 0.02 0.00 93 1013.0
20260906061926 78 27 0.0 1.7 0.00 0.02 0.00 93 1013.0
20260906061420 78 342 0.9 1.7 0.00 0.02 0.00 93 1013.0
20260906060417 78 22 0.9 1.7 0.00 0.02 0.00 93 1013.0
20260906055915 78 316 0.9 3.5 0.00 0.02 0.00 93 1013.0
20260906055413 79 328 0.9 3.5 0.00 0.02 0.00 93 1013.0
20260906054911 79 246 0.9 2.6 0.00 0.02 0.00 93 1013.0
20260906054412 79 57 0.9 2.6 0.00 0.02 0.00 93 1013.0
20260906053911 79 16 0.9 2.6 0.00 0.02 0.00 94 1013.1
20260906053409 79 123 0.9 3.5 0.00 0.02 0.00 94 1013.1
20260906052906 79 277 0.0 4.3 0.00 0.02 0.00 94 1013.0
20260906052407 79 39 0.0 4.3 0.00 0.02 0.00 95 1013.0
20260906051907 78 27 0.9 3.5 0.00 0.02 0.00 95 1012.9
20260906051406 78 26 0.9 3.5 0.00 0.02 0.00 96 1012.9
20260906050910 77 53 0.0 2.6 0.00 0.02 0.00 97 1012.8
20260906050905 78 322 0.9 2.6 0.00 0.02 0.00 97 1012.8
20260906045859 77 338 0.0 0.0 0.00 0.02 0.02 96 1012.8
20260906045401 77 337 0.0 0.0 0.00 0.02 0.02 96 1012.7
20260906044858 77 338 0.0 0.9 0.00 0.02 0.02 97 1012.6
20260906044403 77 338 0.0 0.9 0.00 0.02 0.02 97 1012.7
20260906044358 77 338 0.0 0.9 0.00 0.02 0.02 97 1012.6
20260906043354 77 337 0.0 0.9 0.00 0.02 0.02 97 1012.6
20260906042855 76 338 0.0 0.0 0.00 0.02 0.02 97 1012.5
20260906042353 77 338 0.0 0.0 0.00 0.02 0.02 97 1012.5
20260906041852 77 337 0.0 0.0 0.00 0.02 0.02 97 1012.4
20260906041350 77 338 0.0 0.0 0.00 0.02 0.02 97 1012.4
20260906040848 77 337 0.0 0.0 0.00 0.02 0.02 97 1012.4
20260906040348 77 337 0.0 0.0 0.00 0.02 0.02 97 1012.3
20260906035849 77 337 0.0 0.0 0.00 0.02 0.02 97 1012.3
20260906035845 77 338 0.0 0.0 0.00 0.02 0.02 97 1012.2
20260906034844 77 338 0.0 0.0 0.00 0.02 0.02 96 1012.2
20260906034341 77 337 0.0 0.0 0.00 0.02 0.02 96 1012.1
20260906033839 77 338 0.0 0.0 0.00 0.02 0.02 96 1012.1
20260906033341 77 338 0.0 0.0 0.00 0.02 0.02 96 1012.1
20260906032840 77 338 0.0 0.0 0.00 0.02 0.02 96 1012.0
20260906032337 77 338 0.0 0.0 0.00 0.02 0.02 96 1012.0
20260906031837 77 338 0.0 0.0 0.00 0.02 0.02 96 1012.0
20260906031337 77 337 0.0 0.0 0.00 0.02 0.02 96 1011.9
20260906030835 77 337 0.0 0.0 0.00 0.02 0.02 96 1011.9
20260906030336 77 338 0.0 0.0 0.00 0.02 0.02 96 1011.9
20260906025832 77 337 0.0 0.0 0.00 0.02 0.02 96 1011.8
20260906025332 77 338 0.0 0.0 0.00 0.02 0.02 96 1011.8
20260906024831 77 338 0.0 0.0 0.00 0.02 0.02 96 1011.7
20260906024328 77 337 0.0 0.0 0.00 0.02 0.02 96 1011.7
20260906023829 77 338 0.0 0.0 0.00 0.02 0.02 95 1011.7
20260906023324 78 337 0.0 0.0 0.00 0.02 0.02 95 1011.6
20260906022824 78 337 0.0 0.0 0.00 0.02 0.02 95 1011.4
20260906022322 78 338 0.0 0.0 0.00 0.02 0.02 95 1011.5
20260906021819 78 337 0.0 0.0 0.00 0.02 0.02 95 1011.4
20260906021316 78 338 0.0 0.0 0.00 0.02 0.02 95 1011.4
20260906020822 78 337 0.0 0.0 0.00 0.02 0.02 95 1011.2
20260906020817 78 338 0.0 0.0 0.00 0.02 0.02 95 1011.4
20260906015812 78 338 0.0 0.0 0.00 0.02 0.02 95 1011.2
20260906015313 78 337 0.0 0.0 0.00 0.02 0.02 95 1011.1
20260906014815 78 338 0.0 0.0 0.00 0.02 0.02 95 1011.0
20260906014811 78 338 0.0 0.0 0.00 0.02 0.02 95 1010.9
20260906013808 79 337 0.0 0.0 0.00 0.02 0.02 94 1010.9
20260906013308 79 338 0.0 0.0 0.00 0.02 0.02 94 1010.9
20260906012807 79 338 0.0 0.0 0.00 0.02 0.02 94 1010.9
20260906012307 79 338 0.0 0.0 0.00 0.02 0.02 94 1010.8
20260906011804 79 338 0.0 0.0 0.00 0.02 0.02 94 1010.8
20260906011302 79 337 0.0 0.0 0.00 0.02 0.02 94 1010.7
20260906010803 79 337 0.0 0.0 0.00 0.02 0.02 94 1010.7
20260906010301 79 337 0.0 0.0 0.00 0.02 0.02 93 1010.6
20260906005800 79 338 0.0 0.0 0.00 0.02 0.02 92 1010.5
20260906005258 79 338 0.0 0.0 0.00 0.02 0.02 92 1010.4
20260906004756 79 337 0.0 0.0 0.00 0.02 0.02 92 1010.4
20260906004257 80 338 0.0 0.0 0.00 0.02 0.02 91 1010.4
20260906003753 80 338 0.0 0.0 0.00 0.02 0.02 91 1010.4
20260906003258 80 337 0.0 0.0 0.00 0.02 0.02 90 1010.4
20260906003253 80 337 0.0 0.0 0.00 0.02 0.02 90 1010.4
20260906002250 80 338 0.0 0.0 0.00 0.02 0.02 89 1010.4
20260906001751 80 338 0.0 0.0 0.00 0.02 0.02 89 1010.4
20260906001249 80 338 0.0 0.0 0.00 0.02 0.02 89 1010.4
20260906000746 81 337 0.0 0.0 0.00 0.02 0.02 88 1010.4
20260906000244 81 337 0.0 0.0 0.00 0.02 0.02 89 1010.4
20260905235745 81 338 0.0 0.0 0.00 0.02 0.02 88 1010.5
20260905235243 81 337 0.0 0.0 0.00 0.02 0.02 88 1010.4
20260905234742 81 338 0.0 0.0 0.01 0.02 0.02 89 1010.4
20260905234241 81 338 0.0 0.0 0.02 0.02 0.02 88 1010.4
20260905233741 81 338 0.0 0.0 0.02 0.02 0.02 88 1010.4
20260905233243 81 338 0.0 0.0 0.02 0.02 0.02 88 1010.4
20260905232742 81 337 0.0 0.0 0.02 0.02 0.02 87 1010.4
20260905232241 81 338 0.0 0.9 0.02 0.02 0.02 87 1010.4
20260905231741 82 338 0.0 0.9 0.02 0.02 0.02 85 1010.4
20260905231243 82 335 0.0 1.7 0.02 0.02 0.02 84 1010.4
20260905230741 82 335 0.0 1.7 0.02 0.02 0.02 81 1010.4
20260905230240 83 316 0.0 1.7 0.02 0.02 0.02 80 1010.5
20260905225736 83 205 0.0 1.7 0.02 0.02 0.02 80 1010.5
20260905225236 84 225 0.0 1.7 0.02 0.02 0.02 78 1010.5
20260905224736 86 222 0.9 3.5 0.01 0.01 0.01 74 1010.7
20260905224233 88 326 1.7 4.3 0.00 0.00 0.00 70 1011.0
20260905223740 92 30 1.7 4.3 0.00 0.00 0.00 65 1010.8
20260905223735 90 342 1.7 4.3 0.00 0.00 0.00 67 1011.0
20260905222733 93 349 0.9 3.5 0.00 0.00 0.00 59 1010.6
20260905222232 94 342 0.0 0.9 0.00 0.00 0.00 58 1010.5
20260905221733 95 252 0.9 2.6 0.00 0.00 0.00 56 1010.4
20260905221231 96 20 0.9 2.6 0.00 0.00 0.00 53 1010.6
20260905220730 98 31 0.9 4.3 0.00 0.00 0.00 52 1010.6
20260905220229 99 11 0.9 4.3 0.00 0.00 0.00 50 1010.6
20260905215726 101 18 0.9 2.6 0.00 0.00 0.00 53 1010.4
20260905215227 101 132 0.0 1.7 0.00 0.00 0.00 52 1010.3
20260905214725 101 143 0.9 2.6 0.00 0.00 0.00 53 1010.3
20260905214223 101 71 0.9 3.5 0.00 0.00 0.00 51 1010.1
20260905213720 101 299 0.9 3.5 0.00 0.00 0.00 51 1010.1
20260905213219 101 295 0.9 2.6 0.00 0.00 0.00 51 1010.1
20260905212718 101 351 0.9 3.5 0.00 0.00 0.00 51 1010.2
20260905212218 101 212 0.9 3.5 0.00 0.00 0.00 50 1010.2
20260905211718 101 150 0.0 1.7 0.00 0.00 0.00 49 1010.2
20260905211218 101 255 0.0 2.6 0.00 0.00 0.00 51 1010.3
20260905210716 102 235 0.0 2.6 0.00 0.00 0.00 52 1010.3
20260905210215 103 195 0.0 1.7 0.00 0.00 0.00 52 1010.4
20260905205718 102 90 0.0 4.3 0.00 0.00 0.00 49 1010.5
20260905205713 102 89 0.0 1.7 0.00 0.00 0.00 48 1010.5
20260905204710 102 204 0.9 4.3 0.00 0.00 0.00 53 1010.4
20260905204213 102 301 0.0 1.7 0.00 0.00 0.00 50 1010.4
20260905204208 101 145 0.0 0.9 0.00 0.00 0.00 55 1010.6
20260905203813 101 146 0.0 0.9 0.00 0.00 0.00 51 1010.6
20260905202705 101 143 0.0 1.7 0.00 0.00 0.00 49 1010.5
20260905202206 101 200 0.0 1.7 0.00 0.00 0.00 49 1010.6
20260905201706 102 163 0.0 0.9 0.00 0.00 0.00 50 1010.7
20260905201206 103 230 0.0 4.3 0.00 0.00 0.00 48 1010.7
20260905200706 103 231 0.9 4.3 0.00 0.00 0.00 50 1010.7
20260905200207 102 205 0.9 6.1 0.00 0.00 0.00 47 1010.8
20260905200203 102 243 0.9 6.1 0.00 0.00 0.00 46 1010.9
20260905195200 102 68 0.9 4.3 0.00 0.00 0.00 43 1010.9
20260905194657 103 129 0.9 4.3 0.00 0.00 0.00 44 1010.9
20260905194157 103 95 0.0 4.3 0.00 0.00 0.00 49 1010.9
20260905193657 103 124 0.0 0.9 0.00 0.00 0.00 53 1011.0
20260905193158 103 194 0.0 0.9 0.00 0.00 0.00 50 1011.0
20260905192659 102 136 0.0 2.6 0.00 0.00 0.00 51 1011.1
20260905192203 101 154 0.9 2.6 0.00 0.00 0.00 52 1011.3
20260905192159 102 165 0.9 2.6 0.00 0.00 0.00 49 1011.2
20260905191203 101 214 1.7 5.2 0.00 0.00 0.00 50 1011.4
20260905191157 101 163 0.9 4.3 0.00 0.00 0.00 50 1011.4
20260905190203 101 108 0.9 4.3 0.00 0.00 0.00 50 1011.4
20260905190159 101 231 0.9 5.2 0.00 0.00 0.00 50 1011.4
20260905185157 101 358 0.9 4.3 0.00 0.00 0.00 51 1011.5
20260905184659 101 95 0.9 3.5 0.00 0.00 0.00 48 1011.5
20260905184158 102 228 0.9 2.6 0.00 0.00 0.00 49 1011.7
20260905183658 102 114 0.9 1.7 0.00 0.00 0.00 50 1011.8
20260905183158 102 131 0.9 3.5 0.00 0.00 0.00 49 1011.9
20260905182658 101 72 0.9 3.5 0.00 0.00 0.00 51 1011.9
20260905182203 101 212 0.9 5.2 0.00 0.00 0.00 49 1012.0
20260905182158 101 262 0.9 5.2 0.00 0.00 0.00 50 1012.0
20260905181814 102 72 0.9 1.7 0.00 0.00 0.00 50 1012.1
20260905180659 102 257 0.9 1.7 0.00 0.00 0.00 50 1012.1
20260905180158 102 44 0.0 1.7 0.00 0.00 0.00 52 1012.2
20260905175658 101 176 0.0 1.7 0.00 0.00 0.00 53 1012.1
20260905175159 101 32 0.0 1.7 0.00 0.00 0.00 54 1012.2
20260905174657 101 159 0.0 1.7 0.00 0.00 0.00 54 1012.1
20260905174159 100 155 0.0 1.7 0.00 0.00 0.00 57 1012.1
20260905173702 100 295 0.9 2.6 0.00 0.00 0.00 59 1012.2
20260905173657 100 174 0.0 2.6 0.00 0.00 0.00 56 1012.2
20260905173156 100 34 0.0 2.6 0.00 0.00 0.00 54 1012.2
20260905172157 99 134 0.9 2.6 0.00 0.00 0.00 55 1012.2
20260905171657 99 172 0.0 1.7 0.00 0.00 0.00 57 1012.3
20260905171156 99 18 0.0 1.7 0.00 0.00 0.00 56 1012.3
20260905170657 98 236 0.9 2.6 0.00 0.00 0.00 58 1012.4
20260905170201 98 186 0.9 2.6 0.00 0.00 0.00 57 1012.6
20260905170157 98 143 0.9 2.6 0.00 0.00 0.00 57 1012.5
20260905165155 98 101 0.0 1.7 0.00 0.00 0.00 60 1012.6
20260905164657 98 197 0.0 1.7 0.00 0.00 0.00 58 1012.6
20260905164157 98 107 0.0 1.7 0.00 0.00 0.00 60 1012.8
20260905163701 96 39 0.0 1.7 0.00 0.00 0.00 60 1013.0
20260905163656 97 157 0.0 1.7 0.00 0.00 0.00 60 1012.9
20260905162656 96 20 0.0 1.7 0.00 0.00 0.00 60 1012.9
20260905162157 97 12 0.0 1.7 0.00 0.00 0.00 60 1012.9
20260905161656 96 145 0.0 1.7 0.00 0.00 0.00 65 1013.0
20260905161156 96 236 0.0 1.7 0.00 0.00 0.00 63 1013.0
20260905160701 95 107 0.0 0.9 0.00 0.00 0.00 64 1013.0
20260905160656 95 355 0.0 1.7 0.00 0.00 0.00 62 1013.0
20260905155655 94 107 0.0 1.7 0.00 0.00 0.00 63 1013.1
20260905155157 94 121 0.0 1.7 0.00 0.00 0.00 66 1013.1
20260905154656 94 219 0.0 0.9 0.00 0.00 0.00 66 1013.1
20260905154155 93 232 0.0 2.6 0.00 0.00 0.00 68 1013.1
20260905153655 93 248 0.0 2.6 0.00 0.00 0.00 69 1013.1
20260905153157 92 235 0.0 2.6 0.00 0.00 0.00 68 1013.1
20260905152657 92 49 0.0 2.6 0.00 0.00 0.00 69 1013.0
20260905152157 91 103 0.0 0.9 0.00 0.00 0.00 72 1013.0
20260905151656 91 69 0.0 1.7 0.00 0.00 0.00 68 1013.0
20260905151157 91 71 0.0 1.7 0.00 0.00 0.00 70 1013.1
20260905150655 90 12 0.0 1.7 0.00 0.00 0.00 70 1013.1
20260905150155 90 143 0.0 0.9 0.00 0.00 0.00 72 1013.0
20260905145656 89 276 0.0 1.7 0.00 0.00 0.00 73 1013.0
20260905145155 88 226 0.0 1.7 0.00 0.00 0.00 75 1012.9
20260905144656 87 108 0.0 2.6 0.00 0.00 0.00 76 1013.0
20260905144156 87 165 0.0 2.6 0.00 0.00 0.00 77 1012.9
20260905143656 86 110 0.0 1.7 0.00 0.00 0.00 79 1012.9
20260905143155 85 278 0.0 0.9 0.00 0.00 0.00 80 1013.0
20260905142700 84 95 0.0 0.9 0.00 0.00 0.00 83 1012.9
20260905142655 85 214 0.0 0.9 0.00 0.00 0.00 81 1012.9
20260905141656 84 95 0.0 0.9 0.00 0.00 0.00 85 1012.9
20260905141155 83 95 0.0 0.9 0.00 0.00 0.00 85 1013.0
20260905140656 83 95 0.0 0.9 0.00 0.00 0.00 87 1013.0
20260905140156 83 153 0.0 0.0 0.00 0.00 0.00 88 1013.0
20260905135656 82 154 0.0 0.0 0.00 0.00 0.00 89 1013.0
20260905135156 82 154 0.0 0.0 0.00 0.00 0.00 91 1013.0
20260905134656 81 154 0.0 0.0 0.00 0.00 0.00 92 1012.9
20260905134156 81 153 0.0 0.0 0.00 0.00 0.00 94 1012.9
20260905133656 80 154 0.0 0.0 0.00 0.00 0.00 95 1012.9
20260905133201 79 154 0.0 0.0 0.00 0.00 0.00 97 1012.9
20260905133157 80 154 0.0 0.0 0.00 0.00 0.00 96 1012.9
20260905132811 78 153 0.0 0.0 0.00 0.00 0.00 97 1012.8